OK4ZAW-16 Weather Reports


Display with metric or nautical units.
time (UTC)temp
F
wind
direction
speed
MPH
gust
MPH
rain 1hr
in
rain 24hr
in
rain mn
in
humidity
%
barometer
mb
20260507085816 44 0 3.0 5.0 0.00 0.00 0.00 10 1012.9
20260507085120 44 0 4.0 6.0 0.00 0.00 0.00 10 1012.8
20260507084424 44 0 3.0 6.0 0.00 0.00 0.00 10 1012.7
20260507083728 45 0 3.0 6.0 0.00 0.00 0.00 10 1012.6
20260507083032 45 0 4.0 5.0 0.00 0.00 0.00 10 1012.5
20260507082336 45 0 4.0 6.0 0.00 0.00 0.00 10 1012.5
20260507080944 44 0 4.0 6.0 0.00 0.00 0.00 10 1012.4
20260507080248 44 0 4.0 7.0 0.00 0.00 0.00 10 1012.4
20260507075552 44 0 4.0 7.0 0.00 0.00 0.00 10 1012.3
20260507074856 44 0 4.0 7.0 0.00 0.00 0.00 10 1012.2
20260507074201 44 0 4.0 6.0 0.00 0.00 0.00 10 1012.0
20260507073505 44 0 4.0 8.0 0.00 0.00 0.00 10 1012.0
20260507072113 44 0 4.0 5.0 0.00 0.00 0.00 10 1011.9
20260507071417 44 0 4.0 6.0 0.00 0.00 0.00 10 1011.9
20260507070721 44 0 4.0 7.0 0.00 0.00 0.00 10 1011.8
20260507070025 44 0 4.0 6.0 0.00 0.00 0.00 10 1011.8
20260507064633 44 0 4.0 6.0 0.00 0.00 0.00 10 1011.7
20260507063937 44 0 4.0 6.0 0.00 0.00 0.00 10 1011.7
20260507063241 44 0 4.0 6.0 0.00 0.00 0.00 10 1011.6
20260507062545 44 0 4.0 7.0 0.00 0.00 0.00 10 1011.5
20260507061850 44 0 4.0 6.0 0.00 0.00 0.00 10 1011.4
20260507060458 44 0 4.0 5.0 0.00 0.00 0.00 10 1011.2
20260507055802 44 0 3.0 5.0 0.00 0.00 0.00 10 1011.2
20260507055106 44 0 4.0 5.0 0.00 0.00 0.00 10 1011.2
20260507054410 44 0 3.0 5.0 0.00 0.00 0.00 10 1011.0
20260507053714 44 0 3.0 5.0 0.00 0.00 0.00 10 1011.0
20260507053018 45 0 3.0 5.0 0.00 0.00 0.00 10 1010.8
20260507051626 44 0 2.0 4.0 0.00 0.00 0.00 10 1010.7
20260507050930 44 0 2.0 4.0 0.00 0.00 0.00 10 1010.7
20260507050235 44 0 3.0 4.0 0.00 0.00 0.00 10 1010.7
20260507045539 44 0 2.0 4.0 0.00 0.00 0.00 10 1010.6
20260507044843 44 0 3.0 4.0 0.00 0.00 0.00 10 1010.6
20260507044147 44 0 3.0 4.0 0.00 0.00 0.00 10 1010.5
20260507043451 44 0 3.0 4.0 0.00 0.00 0.00 10 1010.4
20260507042755 44 0 3.0 4.0 0.00 0.00 0.00 10 1010.3
20260507042059 44 0 3.0 4.0 0.00 0.00 0.00 10 1010.2
20260507041404 44 0 2.0 4.0 0.00 0.00 0.00 10 1010.2
20260507040708 44 0 2.0 3.0 0.00 0.00 0.00 10 1010.2
20260507040012 44 0 2.0 4.0 0.00 0.00 0.00 10 1010.1
20260507035316 44 0 3.0 4.0 0.00 0.00 0.00 10 1010.2
20260507034620 43 0 3.0 4.0 0.00 0.00 0.00 10 1010.0
20260507033924 43 0 3.0 4.0 0.00 0.00 0.00 10 1010.0
20260507033228 43 0 3.0 4.0 0.00 0.00 0.00 10 1010.0
20260507032533 43 0 3.0 5.0 0.00 0.00 0.00 10 1010.0
20260507031837 43 0 3.0 4.0 0.00 0.00 0.00 10 1009.9
20260507031141 43 0 4.0 5.0 0.00 0.00 0.00 10 1009.7
20260507030445 43 0 3.0 5.0 0.00 0.00 0.00 10 1009.8
20260507025749 44 0 4.0 6.0 0.00 0.00 0.00 10 1009.7
20260507025053 44 0 4.0 7.0 0.00 0.00 0.00 10 1009.6
20260507024357 44 0 3.0 5.0 0.00 0.00 0.00 10 1009.7
20260507023702 44 0 3.0 4.0 0.00 0.00 0.00 10 1009.6
20260507023006 44 0 3.0 5.0 0.00 0.00 0.00 10 1009.6
20260507022310 44 0 3.0 5.0 0.00 0.00 0.00 10 1009.7
20260507020918 44 0 2.0 5.0 0.00 0.00 0.00 10 1009.6
20260507020222 44 0 1.0 3.0 0.00 0.00 0.00 10 1009.6
20260507015526 43 0 1.0 2.0 0.00 0.00 0.00 10 1009.6
20260507014830 44 0 0.0 1.0 0.00 0.00 0.00 10 1009.8
20260507014135 44 0 0.0 1.0 0.00 0.00 0.00 10 1009.9
20260507013439 44 0 0.0 1.0 0.00 0.00 0.00 10 1009.8
20260507012743 44 0 1.0 1.0 0.00 0.00 0.00 10 1009.7
20260507012047 44 0 1.0 2.0 0.00 0.00 0.00 10 1009.5
20260507011351 44 0 1.0 2.0 0.00 0.00 0.00 10 1009.5
20260507010655 44 0 1.0 2.0 0.00 0.00 0.00 10 1009.3
20260507005959 44 0 1.0 1.0 0.00 0.00 0.00 10 1009.1
20260507005305 44 0 0.0 1.0 0.00 0.00 0.00 10 1009.2
20260507004608 44 0 1.0 3.0 0.00 0.00 0.00 10 1009.3
20260507003912 44 0 1.0 2.0 0.00 0.00 0.00 10 1009.0
20260507003216 44 0 1.0 3.0 0.00 0.00 0.00 10 1008.8
20260507002520 44 0 1.0 3.0 0.00 0.00 0.00 10 1008.7
20260507001824 44 0 1.0 2.0 0.00 0.00 0.00 10 1008.9
20260507001128 44 0 1.0 2.0 0.00 0.00 0.00 10 1008.9
20260507000434 44 0 1.0 2.0 0.00 0.00 0.00 10 1009.0
20260506235040 44 0 1.0 2.0 0.00 0.00 0.00 10 1009.1
20260506234344 44 0 2.0 4.0 0.00 0.00 0.00 10 1009.3
20260506233648 44 0 2.0 4.0 0.00 0.00 0.00 10 1009.3
20260506232953 45 0 2.0 4.0 0.00 0.00 0.00 10 1009.2
20260506232257 45 0 2.0 3.0 0.00 0.00 0.00 10 1009.3
20260506231601 45 0 1.0 2.0 0.00 0.00 0.00 10 1009.4
20260506230905 45 0 1.0 2.0 0.00 0.00 0.00 10 1009.3
20260506230209 45 0 2.0 5.0 0.00 0.00 0.00 10 1009.5
20260506225513 45 0 1.0 4.0 0.00 0.00 0.00 10 1009.2
20260506224817 46 0 1.0 3.0 0.00 0.00 0.00 10 1009.3
20260506224121 46 0 1.0 2.0 0.00 0.00 0.00 10 1009.2
20260506223425 46 0 1.0 3.0 0.00 0.00 0.00 10 1009.0